Simultaneous Nadir Overpasses (SNOs) Predictions

Prediction of SNOs between NOAA-20 and AQUA Satellite Orbit:

Table of predicted SNOs for the next 14.0 days since TLE Epoch: 10/26/2024
Index Date (NOAA-20) Time (NOAA-20) Lat,Lon (NOAA-20) SZA (NOAA-20 ) Date (AQUA) Time (AQUA) Lat,Lon (AQUA) SZA (AQUA ) Distance(km) Time Diff (sec)
1 10/28/2024 05:20:16 81.32, 27.65 99.92 10/28/2024 05:20:58 81.31, 27.72 99.89 1.25 42
2 10/28/2024 06:11:00 -81.32,-164.80 80.10 10/28/2024 06:10:19 -81.31,-164.62 80.11 3.05 41
3 10/30/2024 16:32:41 81.32,-140.21 100.69 10/30/2024 16:33:21 81.31,-140.33 100.68 2.04 40
4 10/30/2024 17:23:25 -81.32, 27.36 79.34 10/30/2024 17:22:42 -81.31, 27.35 79.32 0.53 43
5 11/02/2024 03:45:06 81.32, 51.82 101.45 11/02/2024 03:45:41 81.32, 51.85 101.42 0.75 35
6 11/02/2024 04:35:50 -81.32,-140.59 78.58 11/02/2024 04:35:02 -81.33,-140.45 78.58 2.48 48
7 11/04/2024 14:57:31 81.32,-116.25 102.20 11/04/2024 14:57:59 81.33,-116.12 102.17 2.31 28
8 11/04/2024 15:48:14 -81.32, 51.75 77.89 11/04/2024 15:47:20 -81.33, 51.60 77.83 2.63 54
9 11/07/2024 02:09:56 81.32, 75.57 102.94 11/07/2024 02:10:15 81.32, 75.75 102.91 3.06 19



Historial Predications of SNOs between NOAA-20 and AQUA
